Regional Weather Roundup
Issued by NWS Newport/Morehead, NC

Current Version | Previous Version | Graphics & Text | Print | Product List | Glossary Off
Versions: 1 2 3 4 5 6 7 8 9 10 11 12 13 14 15 16 17 18 19 20 21 22 23 24 25 26 27 28 29 30 31 32 33 34 35 36 37 38 39 40 41 42 43 44 45 46 47 48 49 50

000
ASUS42 KMHX 181614
RWRMHX
WEATHER ROUNDUP FOR EASTERN NORTH CAROLINA
NATIONAL WEATHER SERVICE NEWPORT/MOREHEAD CITY NC
1100 AM EST MON DEC 18 2017

NOTE: "FAIR" INDICATES FEW OR NO CLOUDS BELOW 12,000 FEET
WITH NO SIGNIFICANT WEATHER AND/OR OBSTRUCTIONS TO VISIBILITY

NCZ015>017-031-032-045>047-102-103-181700-
NORTH COAST

CITY           SKY/WX    TMP DP  RH WIND       PRES   REMARKS
EDENTON        SUNNY     56  42  60 W6        30.17F
ELIZABETH CITY SUNNY     58  45  62 NW12      30.15F
KITTY HAWK     SUNNY     53  38  57 CALM      30.14F
MANTEO         SUNNY     55  39  55 NW6       30.16F

$$

NCZ045>047-081-094-103-104-181700-
CENTRAL COAST

CITY           SKY/WX    TMP DP  RH WIND       PRES   REMARKS
FRISCO         MOSUNNY   59  45  59 W5        30.17F

$$

NCZ095-097-098-100-101-181700-
SOUTHERN COAST

CITY           SKY/WX    TMP DP  RH WIND       PRES   REMARKS
BEAUFORT       CLOUDY    58  47  66 SW6       30.18F
CEDAR ISLAND   NOT AVBL
JACKSONVILLE   MOSUNNY   61  50  67 E5        30.18F
PINEY ISLAND     N/A    N/A N/A N/A W5        30.17F
WILMINGTON     PTSUNNY   64  54  69 W7        30.18F


$$

NCZ011>013-027>030-043-044-078>080-089-090>093-098-181700-
COASTAL PLAIN

CITY           SKY/WX    TMP DP  RH WIND       PRES   REMARKS
AHOSKIE        SUNNY     54  41  61 CALM      30.17S
CLINTON        PTSUNNY   60  47  61 CALM      30.18F
ELIZABETHTOWN  NOT AVBL
GOLDSBORO      MOSUNNY   60  34  38 W3        30.15F
GREENVILLE     MOSUNNY   55  41  58 CALM        N/A
HAVELOCK       MOSUNNY   61  46  57 SW6       30.18F
KENANSVILLE    CLOUDY    61  43  51 CALM      30.18F
KINSTON        MOSUNNY   59  37  44 SW5       30.19F
NEW BERN       SUNNY     61  43  51 SW5       30.18F
RICHLANDS      SUNNY     63  45  51 VRB3      30.18F
ROCKY MOUNT    SUNNY     55  42  61 NW6       30.17F
WASHINGTON     CLOUDY    52  43  71 SW5       30.19S
WHITEVILLE     CLOUDY    61  52  72 W3        30.18F

$$

AMZ130-135-150-152-154-156-158-170-250-252-270-ANZ085-086-088-633-658-670-181700-
MARINE OBSERVATIONS

STATION/POSITION TIME  TEMP    WIND        PRES    WAVE   SWELL
                       AIR SEA DIR/SP/G            HT/PER HT/PER
                 (UTC) (F)     (DEG/KT/KT) (MB)    (FT/S) (FT/S)
CHESAPEAKE LIGHT NOT AVBL
64 E VA BEACH    1550   53 57  270/ 14/ 16 1020.6    3/ 4
DUCK             1542   51 52  260/  7/  9 1020.2
2 E DUCK         1600      54                N/A     1/10
OREGON INLET     1542   51 46  230/  4/  5 1020.9
13E OREGON INLT  1548      53                N/A     1/10   2/10
HATTERAS CG      1542   56 53  260/  5/  6 1021.4
DIAMOND BUOY     1550   62 72  290/  8/ 10 1021.8    2/10   2/10
CAPE LOOKOUT     1600          240/  3/  4 1022.2
BEAUFORT LAB     1542   57 51  210/  3/  4 1022.1
30 SE NEW RVR IN 1508   61 63  340/  2/  4 1022.7
30 SE NEW RVR IN 1600      63                N/A     1/10
27 SE WRIGHTSVLE 1508   62 58  360/  4/  6 1022.4
5 SE WRIGHTSVLE  1508   56 55   40/  2/  4 1022.2
225 S CAPE HAT   1450   72 74  230/ 17/ 19 1023.2    4/ 5   2/ 9
41 SE CHARLESTON 1550   70 73  240/ 16/ 19 1022.6    2/ 4   2/ 9

$$




USA.gov is the U.S. government's official web portal to all federal, state and local government web resources and services.